STARLINK-37084, 68254

Orbit data source: Space-Track

STARLINK-37084, 68254 is a payload satellite owned by SpaceX/Seattle (US) in LEO that was launched on Tue, 17 Mar 2026 UTC via an FALCON 9 launch vehicle from the Air Force Eastern Test Range (AFETR). Payload-class satellites include a variety of spacecraft equipped with specific instruments for various scientific and technological missions. These include communications satellites like Starlink; space stations such as the ISS; scientific satellites like the Hubble; Earth observation satellites from companies like Planet Labs, Umbra, and HawkEye 360; GPS; miniature CubeSats for education and research; and military/defense satellites.

Loading next visibility...
Identifier
68254, 2026-054Y
Orbit
LEO
Country
Flag of USUS
Related business
Manufacturer
SpaceX/Seattle
Mission
Operational spacecraft
Bus & Motor
STARLINK V2MO, Unknown motor
Mass
575 kg wet, ~530 kg dry
Launch date (UTC)
2026-03-17 (2 months ago)
Launch vehicle
FALCON 9
Launch site
Air Force Eastern Test Range (AFETR)
Object type
Payload
Rocket body
Debris
Shape & HBR
Unknown shape, 17.7 m
Radar Cross Section
RCS unknown

Expand to show TLE details & history
Last TLE update: 15 hours ago

TLE from 15 hours ago
0 STARLINK-37084
1 68254U 26054Y   26145.13933475  .00062887  00000-0  11276-2 0  9995
2 68254  53.1583 297.7261 0001291  92.1817 267.9340 15.49362342 10750
Epoch: 2026-05-25T03:20Z
TLE epoch observation values (Epoch: 2026-05-25T03:20:38.522Z)
Latitude
-0.00001°
Longitude
4.83417°
Altitude
419.529 km
Speed
7.661 km/s
True Right ascension
19h 50m 54s
True Declination
0° 00' 00"
Sunlit
Object was in full shadow at epoch
Visualization orbit readout
Latitude
Unknown
Longitude
Unknown
Altitude
Unknown
Speed
Unknown
Apparent Right ascension
Unknown
Apparent Declination
Unknown
Sunlit
N/A
Visualization observer readout
Local Sidereal Time
03:53:18
Azimuth
Unknown
Elevation
Unknown
Doppler factor
Unknown
Orbital elements
Apogee altitude
419.727 km
Perigee altitude
417.972 km
Semi-major axis
6,796.986 km
Eccentricity
0.00013
Inclination
53.1583°
RAAN
297.7261°
Arg. of periapsis
92.1817°
True anomaly
267.91922°
Mean anomaly
267.934°
Eccentric anomaly
267.92661°
Mean motion
3.87319 °/min
Orbital period
92.95 mins
BSTAR
0.0011276
Loading maneuver chart data...
Computing Atmospheric mass density...
Loading historical data...
Loading historical data...
Loading historical data...
Loading historical data...
Loading historical data...
Loading historical data...
Loading historical data...

Documentation

Showing up to 5 results
|